Regional Weather Roundup
Issued by NWS Little Rock, AR

Home | Current Version | Previous Version | Text Only | Print | Product List | Glossary Off
Versions: 1 2 3 4 5 6 7 8 9 10 11 12 13 14 15 16 17 18 19 20 21 22 23 24 25 26 27

000
ASUS44 KLZK 220405
RWRLZK

WEATHER ROUNDUP FOR ARKANSAS
NATIONAL WEATHER SERVICE LITTLE ROCK AR
1100 PM CDT MON APR 21 2014

NOTE: "FAIR" INDICATES FEW OR NO CLOUDS BELOW 12,000 FEET WITH NO
SIGNIFICANT WEATHER AND/OR OBSTRUCTIONS TO VISIBILITY.

ARZ001-003-010-029-220500-
NORTHWEST ARKANSAS

CITY           SKY/WX    TMP DP  RH WIND       PRES   REMARKS
FAYETTEVILLE   FOG       55  55 100 CALM      30.03R VSB 1/4
FORT SMITH     CLEAR     62  60  93 CALM      30.00S
HARRISON       CLOUDY    60  58  92 W3        30.01S
BENTONVILLE    PTCLDY    59  55  88 CALM      30.04R
ROGERS         CLOUDY    59  57  93 CALM      30.04R
SILOAM SPGS      N/A     57  54  88 CALM      30.04R VSB 3/4
HIGHFILL       PTCLDY    56  56 100 NW3       30.03R FOG
$$

ARZ004-005-016-220500-
NORTH CENTRAL ARKANSAS

CITY           SKY/WX    TMP DP  RH WIND       PRES   REMARKS
BATESVILLE     CLOUDY    63  61  94 CALM      29.97S
FLIPPIN        CLOUDY    61  54  77 CALM      29.99S
MTN HOME       CLOUDY    61  61 100 CALM      29.98S
$$

ARZ040-041-220500-
WEST CENTRAL ARKANSAS

CITY           SKY/WX    TMP DP  RH WIND       PRES   REMARKS
MENA           MOCLDY    59 N/A N/A CALM      30.00F VSB 1
MOUNT IDA      FOG       61  60  97 CALM      29.97S VSB 1/2
$$

ARZ009-017-025-026-028-220500-
NORTHEAST ARKANSAS

CITY           SKY/WX    TMP DP  RH WIND       PRES   REMARKS
CORNING        CLOUDY    64  64 100 SW9       29.95F
JONESBORO      LGT RAIN  63  59  87 W7        29.96S
NEWPORT        CLOUDY    62  62 100 SW6       29.98F
WALNUT RIDGE   CLOUDY    63  59  88 SW9       29.96F
BLYTHEVILLE    LGT RAIN  65  61  87 W8        29.95S
$$

ARZ022-023-033-042-044-220500-
CENTRAL ARKANSAS

CITY           SKY/WX    TMP DP  RH WIND       PRES   REMARKS
LITTLE ROCK    CLOUDY    64  63  95 N6        29.98S
N LITTLE ROCK  CLOUDY    64  64 100 CALM      29.98S
JACKSONVILLE   FOG       64  64 100 NW2       29.98S VSB 1/4
SEARCY         CLOUDY    63  63 100 CALM      29.99S
HOT SPRINGS    CLOUDY    63  61  93 CALM      29.98F
RUSSELLVILLE   CLOUDY    61  59  93 CALM      29.98S FOG
CLINTON        FAIR      61  61 100 CALM      29.99F FOG
$$

ARZ036-220500-
EAST ARKANSAS

CITY           SKY/WX    TMP DP  RH WIND       PRES   REMARKS
WEST MEMPHIS   CLOUDY    64  64 100 CALM      29.95F FOG
$$

ARZ050-053-066-070-073-220500-
SOUTHWEST ARKANSAS

CITY           SKY/WX    TMP DP  RH WIND       PRES   REMARKS
ARKADELPHIA    CLOUDY    64  64 100 N6        29.97S
CAMDEN         CLOUDY    63  59  88 MISG      29.95F
TEXARKANA      CLOUDY    64  62  93 NW7       29.96F
EL DORADO      LGT RAIN  64  63  96 N10G22    29.95R
DE QUEEN       PTCLDY    60  60 100 N3        29.97S
$$

ARZ056-057-069-220500-
SOUTHEAST ARKANSAS

CITY           SKY/WX    TMP DP  RH WIND       PRES   REMARKS
PINE BLUFF     CLOUDY    63  61  93 CALM      29.97F
STUTTGART      CLOUDY    64  63  94 N5        29.98F
MONTICELLO     LGT RAIN  64  61  90 NE3       29.96S FOG

$$





USA.gov is the U.S. government's official web portal to all federal, state and local government web resources and services.